Location: Cutler
(25.6150°N, 80.3110°W)
Time: 05:05:15
(UTC-04:00)

Vanguard 1 - Pass Details

Date: 01 February 2018
Orbit: 650 x 3833 km, 34.2° (Epoch: 20 May)

Event Time Altitude Azimuth Distance (km) Brightness Sun altitude
Rises 21:28:59 0° 276° (W) 2,957 13.3 -46.0°
Enters shadow 21:29:54 - 279° (W) 2,592 12.9 -46.2°
Reaches altitude 10° 21:31:19 10° 286° (WNW) 2,053 - -46.5°
Maximum altitude 21:35:26 35° 354° (N) 1,154 - -47.5°
Drops below altitude 10° 21:40:43 10° 61° (ENE) 2,652 - -48.7°
Sets 21:44:10 0° 69° (ENE) 3,983 - -49.4°
